FW9099 Weather Reports


time (UTC)temp
C
wind
direction
speed
KPH
gust
KPH
rain 1hr
cm
rain 24hr
cm
rain mn
cm
humidity
%
barometer
mb
20260502123046 8 255 0.0 1.6 0.03 0.03 0.03 77 1013.4
20260502121522 8 89 0.0 4.8 0.00 0.00 0.00 75 1013.3
20260502114510 8 82 0.0 1.6 0.00 0.00 0.00 77 1012.9
20260502113048 8 83 0.0 1.6 0.00 0.00 0.00 78 1012.4
20260502111530 7 82 0.0 1.6 0.00 0.00 0.00 77 1012.1
20260502110040 7 263 0.0 1.6 0.00 0.00 0.00 77 1012.7
20260502104516 7 242 0.0 0.0 0.00 0.00 0.00 78 1012.3
20260502103055 7 242 0.0 0.0 0.00 0.00 0.00 78 1012.2
20260502101541 7 242 0.0 0.0 0.00 0.00 0.00 78 1012.0
20260502091532 7 242 0.0 1.6 0.00 0.00 0.00 77 1011.9
20260502071530 8 257 0.0 1.6 0.00 0.00 0.00 74 1011.8
20260502070037 8 257 0.0 0.0 0.00 0.00 0.00 73 1012.0
20260502064515 8 257 0.0 1.6 0.00 0.00 0.00 73 1011.8
20260502063050 8 101 0.0 1.6 0.00 0.00 0.00 73 1012.2
20260502061529 8 336 0.0 1.6 0.00 0.00 0.00 73 1012.3
20260502060040 8 269 0.0 3.2 0.00 0.00 0.00 72 1012.1
20260502054520 8 292 0.0 1.6 0.00 0.00 0.00 72 1012.1
20260502053112 8 43 0.0 0.0 0.00 0.00 0.00 71 1012.1
20260502051544 8 43 0.0 0.0 0.00 0.00 0.00 70 1012.1
20260502050054 8 53 0.0 0.0 0.00 0.00 0.00 70 1012.2
20260502044539 8 53 0.0 0.0 0.00 0.00 0.00 69 1012.2
20260502043013 8 53 0.0 0.0 0.00 0.00 0.00 69 1012.2
20260502041621 8 53 0.0 0.0 0.00 0.00 0.00 68 1012.3
20260502040100 9 53 0.0 1.6 0.00 0.00 0.00 66 1012.3
20260502034537 9 271 0.0 0.0 0.00 0.00 0.00 64 1012.3
20260502033013 9 24 0.0 1.6 0.00 0.00 0.00 64 1012.3
20260502031551 9 6 0.0 0.0 0.00 0.00 0.00 64 1012.5
20260502030004 8 6 0.0 1.6 0.00 0.00 0.00 63 1012.4
20260502024541 8 349 0.0 1.6 0.00 0.00 0.00 63 1012.3
20260502023019 7 291 0.0 3.2 0.00 0.00 0.00 66 1012.4
20260502021555 7 18 0.0 1.6 0.00 0.00 0.00 71 1012.5
20260502020007 6 213 0.0 1.6 0.00 0.00 0.00 73 1012.4
20260502014549 7 239 0.0 0.0 0.00 0.00 0.00 71 1012.0
20260502013045 7 239 0.0 0.0 0.00 0.00 0.00 69 1012.0
20260502011536 7 240 0.0 0.0 0.00 0.00 0.00 68 1011.9
20260502010041 8 240 0.0 0.0 0.00 0.00 0.00 63 1011.5
20260502004522 9 240 0.0 0.0 0.00 0.00 0.00 57 1011.2
20260502003055 10 239 0.0 0.0 0.00 0.00 0.00 53 1011.2
20260502001535 11 240 0.0 0.0 0.00 0.00 0.00 52 1010.9
20260502000045 12 240 0.0 0.0 0.00 0.00 0.00 47 1010.7
20260501234526 13 239 0.0 1.6 0.00 0.00 0.00 44 1010.5
20260501233107 13 256 0.0 1.6 0.00 0.00 0.00 43 1010.3
20260501231551 14 263 0.0 3.2 0.00 0.00 0.00 40 1009.9
20260501230049 15 271 0.0 6.4 0.00 0.00 0.00 38 1009.8
20260501224524 15 210 0.0 6.4 0.00 0.00 0.00 38 1009.7
20260501223134 15 256 0.0 6.4 0.00 0.00 0.00 37 1009.8
20260501223001 15 272 0.0 6.4 0.00 0.00 0.00 38 1009.8
20260501221539 16 232 0.0 6.4 0.00 0.00 0.00 38 1009.7
20260501220047 16 297 1.6 6.4 0.00 0.00 0.00 35 1009.6
20260501214530 17 216 0.0 4.8 0.00 0.00 0.00 34 1009.6
20260501213001 17 250 1.6 12.9 0.00 0.00 0.00 34 1009.4
20260501211539 17 217 0.0 9.7 0.00 0.00 0.00 34 1009.3
20260501210046 18 238 1.6 11.3 0.00 0.00 0.00 34 1009.2
20260501204527 17 213 1.6 8.0 0.00 0.00 0.00 34 1009.3
20260501203003 17 218 3.2 11.3 0.00 0.00 0.00 34 1009.1
20260501201541 17 207 3.2 11.3 0.00 0.00 0.00 34 1009.0
20260501200049 17 87 0.0 12.9 0.00 0.00 0.00 35 1009.1
20260501194529 16 15 3.2 16.1 0.00 0.00 0.00 35 1009.3
20260501193006 17 252 1.6 12.9 0.00 0.00 0.00 34 1009.4
20260501191543 17 124 1.6 17.7 0.00 0.00 0.00 37 1009.5
20260501190052 17 258 3.2 11.3 0.00 0.00 0.00 36 1009.5
20260501184533 17 110 3.2 14.5 0.00 0.00 0.00 38 1009.8
20260501183009 16 128 1.6 9.7 0.00 0.00 0.00 37 1009.9
20260501181547 16 264 6.4 16.1 0.00 0.00 0.00 38 1010.0
20260501174555 15 226 3.2 14.5 0.00 0.03 0.00 43 1010.4
20260501173012 15 253 1.6 11.3 0.00 0.03 0.00 47 1010.4
20260501171550 15 134 0.0 17.7 0.00 0.03 0.00 46 1010.4
20260501164541 15 273 3.2 11.3 0.00 0.05 0.00 48 1010.6
20260501163014 14 268 3.2 11.3 0.00 0.05 0.00 48 1010.8
20260501161604 14 181 3.2 14.5 0.00 0.05 0.00 50 1010.8
20260501160115 13 204 1.6 11.3 0.00 0.20 0.00 50 1011.1
20260501160005 13 243 1.6 11.3 0.00 0.20 0.00 49 1011.0
20260501154544 12 272 3.2 12.9 0.00 0.20 0.00 52 1011.0
20260501153020 12 192 1.6 6.4 0.00 0.20 0.00 56 1011.1
20260501151554 12 146 1.6 8.0 0.00 0.20 0.00 58 1011.2
20260501150054 11 283 3.2 9.7 0.00 0.25 0.00 58 1011.3
20260501144538 11 233 0.0 8.0 0.00 0.25 0.00 62 1011.5
20260501143016 10 198 0.0 8.0 0.00 0.25 0.00 61 1011.5
20260501141554 10 110 0.0 9.7 0.00 0.25 0.00 62 1011.6
20260501140115 10 282 3.2 9.7 0.00 0.36 0.00 63 1011.5
20260501134546 10 250 0.0 8.0 0.00 0.36 0.00 62 1011.3